Time,TemperatureF,DewpointF,PressureIn,WindDirection,WindDirectionDegrees,WindSpeedMPH,WindSpeedGustMPH,Humidity,HourlyPrecipIn,Conditions,Clouds,dailyrainin,SoftwareType,DateUTC
2014-10-21 00:00:00,54.3,51.4,29.38,ENE,68,10.4,10.4,90,0.00,-RA,,0.00,WeatherDisplay:10.37,2014-10-20 23:00:00,
2014-10-21 00:05:00,54.5,51.3,29.38,South,180,10.0,17.0,89,0.00,-RA,-RA,0.00,WeatherDisplay:10.37,2014-10-20 23:05:00,
2014-10-21 00:10:00,54.5,51.3,29.38,SSW,202,12.7,12.7,89,0.00,-RA,,0.00,WeatherDisplay:10.37,2014-10-20 23:10:00,
2014-10-21 00:15:00,54.5,51.3,29.38,SE,135,16.1,16.1,89,0.00,-RA,,0.00,WeatherDisplay:10.37,2014-10-20 23:15:00,
2014-10-21 00:20:00,54.5,51.3,29.38,SSE,167,7.0,16.0,89,0.00,-RA,-RA,0.00,WeatherDisplay:10.37,2014-10-20 23:20:00,
2014-10-21 00:25:00,54.5,51.3,29.38,SSE,158,11.5,11.5,89,0.00,-RA,,0.00,WeatherDisplay:10.37,2014-10-20 23:25:00,
2014-10-21 00:30:00,54.5,51.6,29.38,SSE,158,11.5,11.5,90,0.00,-RA,,0.00,WeatherDisplay:10.37,2014-10-20 23:30:00,
2014-10-21 00:35:00,54.5,51.6,29.32,SSE,158,12.7,12.7,90,0.00,-RA,,0.00,WeatherDisplay:10.37,2014-10-20 23:35:00,
2014-10-21 00:40:00,54.5,51.6,29.32,SSE,158,10.4,10.4,90,0.00,-RA,,0.00,WeatherDisplay:10.37,2014-10-20 23:40:00,
2014-10-21 00:45:00,54.5,51.6,29.32,SSE,158,10.4,10.4,90,0.00,-RA,,0.00,WeatherDisplay:10.37,2014-10-20 23:45:00,
2014-10-21 00:50:00,54.5,51.9,29.32,South,172,9.0,15.0,91,0.00,-RA,-RA,0.00,WeatherDisplay:10.37,2014-10-20 23:50:00,
2014-10-21 00:55:00,54.5,51.9,29.32,SSE,158,13.8,13.8,91,0.00,-RA,,0.00,WeatherDisplay:10.37,2014-10-20 23:55:00,
2014-10-21 01:00:00,54.5,52.2,29.32,SSE,158,13.8,13.8,92,0.00,-RA,,0.00,WeatherDisplay:10.37,2014-10-21 00:00:00,
2014-10-21 01:05:00,54.5,52.2,29.32,SSE,166,9.0,14.0,92,0.00,-RA,-RA,0.00,WeatherDisplay:10.37,2014-10-21 00:05:00,
2014-10-21 01:10:00,54.5,52.2,29.32,South,170,8.0,13.0,92,0.00,-RA,-RA,0.00,WeatherDisplay:10.37,2014-10-21 00:10:00,
2014-10-21 01:15:00,54.5,52.2,29.32,South,170,8.0,15.0,92,0.00,-RA,-RA,0.00,WeatherDisplay:10.37,2014-10-21 00:15:00,
2014-10-21 01:20:00,54.1,52.2,29.29,SSE,158,10.4,10.4,93,0.00,-RA,,0.00,WeatherDisplay:10.37,2014-10-21 00:20:00,
2014-10-21 01:25:00,54.0,52.4,29.29,SSE,157,9.0,15.0,94,0.00,-RA,-RA,0.00,WeatherDisplay:10.37,2014-10-21 00:25:00,
2014-10-21 01:30:00,54.0,52.3,29.29,SSW,202,16.1,16.1,94,0.00,-RA,,0.00,WeatherDisplay:10.37,2014-10-21 00:30:00,
2014-10-21 01:35:00,53.9,52.2,29.27,SSE,161,9.0,13.0,94,0.00,-RA,-RA,0.00,WeatherDisplay:10.37,2014-10-21 00:35:00,
2014-10-21 01:40:00,53.8,52.1,29.26,SSE,165,9.0,17.0,94,0.00,-RA,-RA,0.00,WeatherDisplay:10.37,2014-10-21 00:40:00,
2014-10-21 01:45:00,54.0,52.3,29.26,South,180,15.0,15.0,94,0.00,-RA,,0.00,WeatherDisplay:10.37,2014-10-21 00:45:00,
2014-10-21 01:50:00,54.0,52.3,29.26,South,180,13.2,13.2,94,0.00,-RA,,0.00,WeatherDisplay:10.37,2014-10-21 00:50:00,
2014-10-21 01:55:00,54.0,52.3,29.26,SE,135,7.1,7.1,94,0.00,-RA,,0.00,WeatherDisplay:10.37,2014-10-21 00:55:00,
2014-10-21 02:00:00,54.1,52.5,29.26,South,180,6.9,6.9,94,0.00,-RA,,0.00,WeatherDisplay:10.37,2014-10-21 01:00:00,
2014-10-21 02:05:00,54.1,52.5,29.24,South,180,8.0,10.0,94,0.00,-RA,-RA,0.00,WeatherDisplay:10.37,2014-10-21 01:05:00,
2014-10-21 02:10:00,54.5,52.8,29.24,SSW,202,12.7,12.7,94,0.00,-RA,,0.00,WeatherDisplay:10.37,2014-10-21 01:10:00,
2014-10-21 02:15:00,54.5,52.5,29.24,SSW,202,6.9,6.9,93,0.00,-RA,,0.00,WeatherDisplay:10.37,2014-10-21 01:15:00,
2014-10-21 02:20:00,54.4,52.4,29.21,South,183,5.0,9.0,93,0.00,-RA,-RA,0.00,WeatherDisplay:10.37,2014-10-21 01:20:00,
2014-10-21 02:25:00,54.3,52.6,29.20,SSE,158,12.8,12.8,94,0.00,-RA,,0.00,WeatherDisplay:10.37,2014-10-21 01:25:00,
2014-10-21 02:30:00,54.3,52.3,29.20,SSW,202,10.4,10.4,93,0.00,-RA,,0.00,WeatherDisplay:10.37,2014-10-21 01:30:00,
2014-10-21 02:35:00,54.3,52.3,29.20,SW,225,9.2,9.2,93,0.00,-RA,,0.00,WeatherDisplay:10.37,2014-10-21 01:35:00,
2014-10-21 02:40:00,54.5,52.5,29.20,South,177,9.0,17.0,93,0.00,-RA,-RA,0.00,WeatherDisplay:10.37,2014-10-21 01:40:00,
2014-10-21 02:45:00,54.5,52.5,29.20,SSE,158,11.5,11.5,93,0.00,-RA,,0.00,WeatherDisplay:10.37,2014-10-21 01:45:00,
2014-10-21 02:50:00,54.3,52.3,29.20,South,176,8.0,15.0,93,0.00,-RA,-RA,0.00,WeatherDisplay:10.37,2014-10-21 01:50:00,
2014-10-21 02:55:00,54.1,52.2,29.20,South,180,8.1,8.1,93,0.00,-RA,,0.00,WeatherDisplay:10.37,2014-10-21 01:55:00,
2014-10-21 03:00:00,54.1,52.5,29.20,SE,135,9.2,9.2,94,0.00,-RA,,0.00,WeatherDisplay:10.37,2014-10-21 02:00:00,
2014-10-21 03:05:00,54.0,52.3,29.15,South,180,8.1,8.1,94,0.00,-RA,,0.00,WeatherDisplay:10.37,2014-10-21 02:05:00,
2014-10-21 03:10:00,54.0,52.3,29.15,SSE,158,11.5,11.5,94,0.00,-RA,,0.00,WeatherDisplay:10.37,2014-10-21 02:10:00,
2014-10-21 03:15:00,53.8,52.1,29.15,South,176,6.0,12.0,94,0.00,-RA,-RA,0.00,WeatherDisplay:10.37,2014-10-21 02:15:00,
2014-10-21 03:20:00,54.0,52.6,29.15,South,176,7.0,12.0,95,0.01,-RA,-RA,0.01,WeatherDisplay:10.37,2014-10-21 02:20:00,
2014-10-21 03:25:00,54.0,52.3,29.15,SSW,202,10.4,10.4,94,0.01,-RA,,0.01,WeatherDisplay:10.37,2014-10-21 02:25:00,
2014-10-21 03:30:00,54.0,52.3,29.15,SSE,158,12.7,12.7,94,0.01,-RA,,0.01,WeatherDisplay:10.37,2014-10-21 02:30:00,
2014-10-21 03:35:00,54.0,52.3,29.12,South,169,9.0,17.0,94,0.01,-RA,-RA,0.01,WeatherDisplay:10.37,2014-10-21 02:35:00,
2014-10-21 03:40:00,54.0,52.3,29.12,South,173,8.0,12.0,94,0.01,-RA,-RA,0.01,WeatherDisplay:10.37,2014-10-21 02:40:00,
2014-10-21 03:45:00,54.0,52.3,29.12,South,179,9.0,14.0,94,0.01,-RA,-RA,0.01,WeatherDisplay:10.37,2014-10-21 02:45:00,
2014-10-21 03:50:00,54.0,52.3,29.12,SSE,158,15.0,15.0,94,0.01,-RA,,0.01,WeatherDisplay:10.37,2014-10-21 02:50:00,
2014-10-21 03:55:00,54.0,52.6,29.12,SE,135,19.6,19.6,95,0.01,-RA,,0.01,WeatherDisplay:10.37,2014-10-21 02:55:00,
2014-10-21 04:00:00,54.0,52.6,29.12,SSE,158,10.4,10.4,95,0.01,-RA,,0.01,WeatherDisplay:10.37,2014-10-21 03:00:00,
2014-10-21 04:05:00,54.0,52.6,29.09,South,180,15.0,15.0,95,0.01,-RA,,0.01,WeatherDisplay:10.37,2014-10-21 03:05:00,
2014-10-21 04:10:00,54.0,52.6,29.09,SE,135,9.2,9.2,95,0.01,-RA,,0.01,WeatherDisplay:10.37,2014-10-21 03:10:00,
2014-10-21 04:15:00,54.0,52.6,29.09,SSE,165,8.0,14.0,95,0.01,-RA,-RA,0.01,WeatherDisplay:10.37,2014-10-21 03:15:00,
2014-10-21 04:20:00,54.0,52.6,29.09,South,180,13.8,13.8,95,0.01,-RA,,0.01,WeatherDisplay:10.37,2014-10-21 03:20:00,
2014-10-21 04:25:00,54.0,52.6,29.09,South,171,6.0,12.0,95,0.00,-RA,-RA,0.01,WeatherDisplay:10.37,2014-10-21 03:25:00,
2014-10-21 04:30:00,54.0,52.6,29.09,South,173,6.0,10.0,95,0.00,-RA,-RA,0.01,WeatherDisplay:10.37,2014-10-21 03:30:00,
2014-10-21 04:35:00,54.1,52.7,29.06,SSE,158,12.7,12.7,95,0.00,-RA,,0.01,WeatherDisplay:10.37,2014-10-21 03:35:00,
2014-10-21 04:40:00,54.3,52.9,29.06,SE,135,17.3,17.3,95,0.00,-RA,,0.01,WeatherDisplay:10.37,2014-10-21 03:40:00,
2014-10-21 04:45:00,54.5,53.1,29.06,ESE,112,10.4,10.4,95,0.00,-RA,,0.01,WeatherDisplay:10.37,2014-10-21 03:45:00,
2014-10-21 04:50:00,54.5,53.1,29.03,SSW,202,9.2,9.2,95,0.00,-RA,,0.01,WeatherDisplay:10.37,2014-10-21 03:50:00,
2014-10-21 04:55:00,54.7,53.3,29.03,South,180,11.5,11.5,95,0.00,-RA,,0.01,WeatherDisplay:10.37,2014-10-21 03:55:00,
2014-10-21 05:00:00,54.7,53.0,29.03,South,180,11.4,11.4,94,0.00,-RA,,0.01,WeatherDisplay:10.37,2014-10-21 04:00:00,
2014-10-21 05:05:00,54.7,53.0,29.03,SW,225,10.4,10.4,94,0.00,-RA,,0.01,WeatherDisplay:10.37,2014-10-21 04:05:00,
2014-10-21 05:10:00,54.7,53.3,29.03,SSW,194,7.0,10.0,95,0.00,-RA,-RA,0.01,WeatherDisplay:10.37,2014-10-21 04:10:00,
2014-10-21 05:15:00,54.5,53.1,29.03,SSW,202,11.5,11.5,95,0.00,-RA,,0.01,WeatherDisplay:10.37,2014-10-21 04:15:00,
2014-10-21 05:20:00,54.5,53.1,29.00,SE,135,12.5,12.5,95,0.00,-RA,,0.01,WeatherDisplay:10.37,2014-10-21 04:20:00,
2014-10-21 05:25:00,54.5,53.1,29.00,South,184,8.0,13.0,95,0.00,-RA,-RA,0.01,WeatherDisplay:10.37,2014-10-21 04:25:00,
2014-10-21 05:30:00,54.5,53.1,29.00,South,190,9.0,13.0,95,0.00,-RA,-RA,0.01,WeatherDisplay:10.37,2014-10-21 04:30:00,
2014-10-21 05:35:00,54.5,53.1,29.00,SE,135,13.8,13.8,95,0.00,-RA,,0.01,WeatherDisplay:10.37,2014-10-21 04:35:00,
2014-10-21 05:40:00,54.3,52.9,29.00,SW,217,6.0,12.0,95,0.00,-RA,-RA,0.01,WeatherDisplay:10.37,2014-10-21 04:40:00,
2014-10-21 05:45:00,54.3,52.9,29.00,WSW,248,9.2,9.2,95,0.00,-RA,,0.01,WeatherDisplay:10.37,2014-10-21 04:45:00,
2014-10-21 05:50:00,54.3,52.9,28.97,SSW,205,8.0,15.0,95,0.00,-RA,-RA,0.01,WeatherDisplay:10.37,2014-10-21 04:50:00,
2014-10-21 05:55:00,54.3,52.6,28.97,SSW,196,8.0,17.0,94,0.00,-RA,-RA,0.01,WeatherDisplay:10.37,2014-10-21 04:55:00,
2014-10-21 06:00:00,54.3,52.6,28.97,SSW,202,10.4,10.4,94,0.00,-RA,,0.01,WeatherDisplay:10.37,2014-10-21 05:00:00,
2014-10-21 06:05:00,54.1,52.5,28.97,South,190,6.0,8.0,94,0.00,-RA,-RA,0.01,WeatherDisplay:10.37,2014-10-21 05:05:00,
2014-10-21 06:10:00,54.0,52.6,28.97,South,186,6.0,14.0,95,0.00,-RA,-RA,0.01,WeatherDisplay:10.37,2014-10-21 05:10:00,
2014-10-21 06:15:00,53.8,52.4,28.97,SSE,158,8.1,8.1,95,0.00,-RA,,0.01,WeatherDisplay:10.37,2014-10-21 05:15:00,
2014-10-21 06:20:00,53.8,52.4,28.97,South,182,8.0,12.0,95,0.00,-RA,-RA,0.01,WeatherDisplay:10.37,2014-10-21 05:20:00,
2014-10-21 06:25:00,53.6,52.2,28.97,SSW,196,6.0,10.0,95,0.00,-RA,-RA,0.01,WeatherDisplay:10.37,2014-10-21 05:25:00,
2014-10-21 06:30:00,53.6,52.2,28.97,SW,225,8.1,8.1,95,0.00,-RA,,0.01,WeatherDisplay:10.37,2014-10-21 05:30:00,
2014-10-21 06:35:00,53.8,52.4,29.00,SSW,199,6.0,8.0,95,0.00,-RA,-RA,0.01,WeatherDisplay:10.37,2014-10-21 05:35:00,
2014-10-21 06:40:00,53.8,52.4,29.00,SSW,205,7.0,12.0,95,0.00,-RA,-RA,0.01,WeatherDisplay:10.37,2014-10-21 05:40:00,
2014-10-21 06:45:00,53.8,52.1,29.00,South,180,8.1,8.1,94,0.00,-RA,,0.01,WeatherDisplay:10.37,2014-10-21 05:45:00,
2014-10-21 06:50:00,53.8,52.1,28.97,SSW,207,6.0,10.0,94,0.00,-RA,-RA,0.01,WeatherDisplay:10.37,2014-10-21 05:50:00,
2014-10-21 06:55:00,53.8,52.1,28.97,WSW,237,8.0,17.0,94,0.00,-RA,-RA,0.01,WeatherDisplay:10.37,2014-10-21 05:55:00,
2014-10-21 07:00:00,53.4,52.0,28.97,WNW,292,12.7,12.7,95,0.00,-RA,,0.01,WeatherDisplay:10.37,2014-10-21 06:00:00,
2014-10-21 07:05:00,52.1,48.4,28.97,WSW,257,23.0,28.0,87,0.01,-RA,-RA,0.03,WeatherDisplay:10.37,2014-10-21 06:05:00,
2014-10-21 07:10:00,51.8,46.8,28.97,WNW,292,27.6,27.6,83,0.01,-RA,,0.03,WeatherDisplay:10.37,2014-10-21 06:10:00,
2014-10-21 07:15:00,50.9,45.3,28.97,WNW,292,27.6,27.6,81,0.01,-RA,,0.03,WeatherDisplay:10.37,2014-10-21 06:15:00,
2014-10-21 07:20:00,50.2,42.9,29.02,WNW,292,23.0,32.0,76,0.01,-RA,-RA,0.03,WeatherDisplay:10.37,2014-10-21 06:20:00,
2014-10-21 07:25:00,49.5,42.2,29.03,NW,314,23.0,31.0,76,0.01,-RA,-RA,0.03,WeatherDisplay:10.37,2014-10-21 06:25:00,
2014-10-21 07:30:00,48.9,41.7,29.03,NW,317,21.0,33.0,76,0.01,-RA,-RA,0.03,WeatherDisplay:10.37,2014-10-21 06:30:00,
2014-10-21 07:35:00,48.7,41.2,29.03,WNW,290,23.0,28.0,75,0.01,-RA,-RA,0.03,WeatherDisplay:10.37,2014-10-21 06:35:00,
2014-10-21 07:40:00,48.4,40.5,29.03,WNW,292,27.7,27.7,74,0.01,-RA,,0.03,WeatherDisplay:10.37,2014-10-21 06:40:00,
2014-10-21 07:45:00,48.4,40.5,29.03,WNW,292,26.5,26.5,74,0.01,-RA,,0.03,WeatherDisplay:10.37,2014-10-21 06:45:00,
2014-10-21 07:50:00,48.4,40.5,29.09,WNW,292,22.8,22.8,74,0.01,-RA,,0.03,WeatherDisplay:10.37,2014-10-21 06:50:00,
2014-10-21 07:55:00,48.2,40.6,29.09,WSW,248,16.8,16.8,75,0.01,-RA,,0.03,WeatherDisplay:10.37,2014-10-21 06:55:00,
2014-10-21 08:00:00,48.0,40.8,29.09,NNW,338,17.3,17.3,76,0.01,-RA,,0.03,WeatherDisplay:10.37,2014-10-21 07:00:00,
2014-10-21 08:05:00,48.0,40.5,29.09,WNW,292,13.8,14.5,75,0.00,-RA,,0.03,WeatherDisplay:10.37,2014-10-21 07:05:00,
2014-10-21 08:10:00,48.0,40.1,29.09,WNW,292,19.6,19.6,74,0.00,-RA,,0.03,WeatherDisplay:10.37,2014-10-21 07:10:00,
2014-10-21 08:15:00,48.0,40.1,29.09,WNW,297,21.0,23.0,74,0.00,-RA,-RA,0.03,WeatherDisplay:10.37,2014-10-21 07:15:00,
2014-10-21 08:20:00,47.8,39.6,29.12,WNW,292,29.9,29.9,73,0.00,-RA,,0.03,WeatherDisplay:10.37,2014-10-21 07:20:00,
2014-10-21 08:25:00,47.8,38.9,29.12,WNW,292,26.6,26.6,71,0.00,-RA,,0.03,WeatherDisplay:10.37,2014-10-21 07:25:00,
2014-10-21 08:30:00,48.0,39.1,29.12,WNW,289,20.0,27.0,71,0.00,-RA,-RA,0.03,WeatherDisplay:10.37,2014-10-21 07:30:00,
2014-10-21 08:35:00,48.0,38.7,29.14,WNW,287,21.0,24.0,70,0.00,-RA,-RA,0.03,WeatherDisplay:10.37,2014-10-21 07:35:00,
2014-10-21 08:40:00,47.8,39.6,29.15,WNW,292,12.7,12.7,73,0.00,-RA,,0.03,WeatherDisplay:10.37,2014-10-21 07:40:00,
2014-10-21 08:45:00,47.7,39.8,29.15,West,273,12.0,17.0,74,0.00,-RA,-RA,0.03,WeatherDisplay:10.37,2014-10-21 07:45:00,
2014-10-21 08:50:00,47.5,39.6,29.15,WNW,292,20.7,20.7,74,0.00,-RA,,0.03,WeatherDisplay:10.37,2014-10-21 07:50:00,
2014-10-21 08:55:00,47.5,39.6,29.15,WNW,292,17.5,17.5,74,0.00,-RA,,0.03,WeatherDisplay:10.37,2014-10-21 07:55:00,
2014-10-21 09:00:00,47.5,39.3,29.15,WNW,284,18.0,29.0,73,0.00,-RA,-RA,0.03,WeatherDisplay:10.37,2014-10-21 08:00:00,
2014-10-21 09:05:00,47.5,39.3,29.15,West,270,19.9,19.9,73,0.00,-RA,,0.03,WeatherDisplay:10.37,2014-10-21 08:05:00,
2014-10-21 09:10:00,47.5,38.9,29.15,WNW,284,18.0,30.0,72,0.00,-RA,-RA,0.03,WeatherDisplay:10.37,2014-10-21 08:10:00,
2014-10-21 09:15:00,47.5,39.3,29.15,WNW,287,14.0,24.0,73,0.00,-RA,-RA,0.03,WeatherDisplay:10.37,2014-10-21 08:15:00,
2014-10-21 09:20:00,47.5,39.3,29.18,NW,315,16.1,16.1,73,0.00,-RA,,0.03,WeatherDisplay:10.37,2014-10-21 08:20:00,
2014-10-21 09:25:00,47.6,39.3,29.18,WNW,299,14.0,15.0,73,0.00,-RA,-RA,0.03,WeatherDisplay:10.37,2014-10-21 08:25:00,
2014-10-21 09:30:00,47.7,39.1,29.18,WSW,248,24.4,24.4,72,0.00,-RA,,0.03,WeatherDisplay:10.37,2014-10-21 08:30:00,
2014-10-21 09:35:00,47.8,39.2,29.20,WNW,292,20.7,20.7,72,0.00,-RA,,0.03,WeatherDisplay:10.37,2014-10-21 08:35:00,
2014-10-21 09:40:00,48.0,39.1,29.20,WNW,292,24.2,24.2,71,0.00,-RA,,0.03,WeatherDisplay:10.37,2014-10-21 08:40:00,
2014-10-21 09:45:00,48.0,39.1,29.20,WNW,292,17.3,17.3,71,0.00,-RA,,0.03,WeatherDisplay:10.37,2014-10-21 08:45:00,
2014-10-21 09:50:00,48.2,38.9,29.20,WNW,292,25.3,25.3,70,0.00,-RA,,0.03,WeatherDisplay:10.37,2014-10-21 08:50:00,
2014-10-21 09:55:00,48.3,38.9,29.20,WNW,284,15.0,22.0,70,0.00,-RA,-RA,0.03,WeatherDisplay:10.37,2014-10-21 08:55:00,
2014-10-21 10:00:00,48.4,39.0,29.20,WNW,288,14.0,22.0,70,0.00,-RA,-RA,0.03,WeatherDisplay:10.37,2014-10-21 09:00:00,
2014-10-21 10:05:00,48.6,39.2,29.20,NW,315,20.6,20.6,70,0.00,-RA,,0.03,WeatherDisplay:10.37,2014-10-21 09:05:00,
2014-10-21 10:10:00,48.7,39.4,29.20,WNW,292,19.6,19.6,70,0.00,-RA,,0.03,WeatherDisplay:10.37,2014-10-21 09:10:00,
2014-10-21 10:15:00,48.9,39.6,29.20,WSW,248,13.8,13.8,70,0.00,-RA,,0.03,WeatherDisplay:10.37,2014-10-21 09:15:00,
2014-10-21 10:20:00,49.1,39.7,29.24,WNW,292,13.8,13.8,70,0.00,-RA,,0.03,WeatherDisplay:10.37,2014-10-21 09:20:00,
2014-10-21 10:25:00,49.3,39.5,29.24,WNW,292,17.3,17.3,69,0.00,-RA,,0.03,WeatherDisplay:10.37,2014-10-21 09:25:00,
2014-10-21 10:30:00,49.5,39.7,29.24,West,270,17.6,17.6,69,0.00,-RA,,0.03,WeatherDisplay:10.37,2014-10-21 09:30:00,
2014-10-21 10:35:00,49.5,39.7,29.24,WNW,292,19.6,19.6,69,0.00,-RA,,0.03,WeatherDisplay:10.37,2014-10-21 09:35:00,
2014-10-21 10:40:00,49.5,39.3,29.24,WSW,248,23.0,23.0,68,0.00,-RA,,0.03,WeatherDisplay:10.37,2014-10-21 09:40:00,
2014-10-21 10:45:00,49.5,39.7,29.24,West,270,19.7,19.7,69,0.00,-RA,,0.03,WeatherDisplay:10.37,2014-10-21 09:45:00,
2014-10-21 10:50:00,49.6,40.3,29.26,WNW,292,17.3,17.3,70,0.00,-RA,,0.03,WeatherDisplay:10.37,2014-10-21 09:50:00,
2014-10-21 10:56:00,49.8,39.7,29.26,WNW,292,23.0,23.0,68,0.00,-RA,,0.03,WeatherDisplay:10.37,2014-10-21 09:56:00,
2014-10-21 11:01:00,50.0,39.1,29.26,WNW,292,17.3,17.3,66,0.00,-RA,,0.03,WeatherDisplay:10.37,2014-10-21 10:01:00,
2014-10-21 11:06:00,50.0,38.7,29.26,WNW,292,20.6,20.6,65,0.00,-RA,,0.03,WeatherDisplay:10.37,2014-10-21 10:06:00,
2014-10-21 11:11:00,50.2,38.5,29.26,West,270,17.5,17.5,64,0.00,-RA,,0.03,WeatherDisplay:10.37,2014-10-21 10:11:00,
2014-10-21 11:16:00,50.5,38.8,29.26,NW,315,17.3,17.3,64,0.00,-RA,,0.03,WeatherDisplay:10.37,2014-10-21 10:16:00,
2014-10-21 11:21:00,52.7,39.6,29.26,WNW,292,19.6,19.6,61,0.00,-RA,,0.03,WeatherDisplay:10.37,2014-10-21 10:21:00,
2014-10-21 11:26:00,53.8,39.8,29.26,WNW,292,24.2,24.2,59,0.00,-RA,,0.03,WeatherDisplay:10.37,2014-10-21 10:26:00,
2014-10-21 11:31:00,54.7,39.7,29.26,NW,315,23.0,23.0,57,0.00,-RA,,0.03,WeatherDisplay:10.37,2014-10-21 10:31:00,
2014-10-21 11:36:00,55.0,38.7,29.29,WSW,248,27.6,27.6,54,0.00,-RA,,0.03,WeatherDisplay:10.37,2014-10-21 10:36:00,
2014-10-21 11:41:00,54.7,38.8,29.29,WNW,292,24.2,24.2,55,0.00,-RA,,0.03,WeatherDisplay:10.37,2014-10-21 10:41:00,
2014-10-21 11:46:00,53.8,38.0,29.29,West,270,28.8,28.8,55,0.00,-RA,,0.03,WeatherDisplay:10.37,2014-10-21 10:46:00,
2014-10-21 11:51:00,51.6,39.4,29.32,West,270,23.0,23.0,63,0.00,-RA,,0.03,WeatherDisplay:10.37,2014-10-21 10:51:00,
2014-10-21 11:56:00,50.5,40.0,29.32,WSW,248,20.7,20.7,67,0.00,-RA,,0.03,WeatherDisplay:10.37,2014-10-21 10:56:00,
2014-10-21 12:01:00,52.2,41.9,29.32,WSW,248,17.3,17.3,68,0.00,-RA,,0.03,WeatherDisplay:10.37,2014-10-21 11:01:00,
2014-10-21 12:06:00,53.1,41.6,29.32,West,270,23.9,23.9,65,0.00,-RA,,0.03,WeatherDisplay:10.37,2014-10-21 11:06:00,
2014-10-21 12:11:00,52.0,39.8,29.32,West,270,23.0,23.0,63,0.00,-RA,,0.03,WeatherDisplay:10.37,2014-10-21 11:11:00,
2014-10-21 12:16:00,51.6,39.4,29.32,WNW,292,23.0,23.0,63,0.00,-RA,,0.03,WeatherDisplay:10.37,2014-10-21 11:16:00,
2014-10-21 12:21:00,51.6,39.4,29.32,WNW,292,25.3,25.3,63,0.00,-RA,,0.03,WeatherDisplay:10.37,2014-10-21 11:21:00,
2014-10-21 12:26:00,52.2,38.3,29.32,West,270,23.0,23.0,59,0.00,-RA,,0.03,WeatherDisplay:10.37,2014-10-21 11:26:00,
2014-10-21 12:31:00,52.9,38.1,29.32,WNW,292,24.2,24.2,57,0.00,-RA,,0.03,WeatherDisplay:10.37,2014-10-21 11:31:00,
2014-10-21 12:36:00,53.8,37.5,29.35,WNW,292,26.5,26.5,54,0.00,-RA,,0.03,WeatherDisplay:10.37,2014-10-21 11:36:00,
2014-10-21 12:41:00,54.1,37.4,29.35,WNW,292,16.1,16.3,53,0.00,-RA,,0.03,WeatherDisplay:10.37,2014-10-21 11:41:00,
2014-10-21 12:46:00,54.9,37.6,29.35,WNW,292,17.3,17.3,52,0.00,-RA,,0.03,WeatherDisplay:10.37,2014-10-21 11:46:00,
2014-10-21 12:51:00,54.5,36.7,29.38,West,270,28.8,28.8,51,0.00,-RA,,0.03,WeatherDisplay:10.37,2014-10-21 11:51:00,
2014-10-21 12:56:00,54.5,36.7,29.38,West,270,17.3,17.3,51,0.00,-RA,,0.03,WeatherDisplay:10.37,2014-10-21 11:56:00,
2014-10-21 13:01:00,54.0,35.7,29.38,WNW,292,21.9,21.9,50,0.00,-RA,,0.03,WeatherDisplay:10.37,2014-10-21 12:01:00,
2014-10-21 13:06:00,52.9,35.2,29.38,WNW,292,21.9,21.9,51,0.00,-RA,,0.03,WeatherDisplay:10.37,2014-10-21 12:06:00,
2014-10-21 13:11:00,52.7,35.6,29.38,WNW,292,19.6,19.6,52,0.00,-RA,,0.03,WeatherDisplay:10.37,2014-10-21 12:11:00,
2014-10-21 13:16:00,52.2,34.1,29.38,WNW,292,23.0,23.0,50,0.00,-RA,,0.03,WeatherDisplay:10.37,2014-10-21 12:16:00,
2014-10-21 13:21:00,51.3,34.2,29.41,WNW,292,25.3,25.3,52,0.00,-RA,,0.03,WeatherDisplay:10.37,2014-10-21 12:21:00,
2014-10-21 13:26:00,50.2,34.2,29.41,WNW,292,28.8,28.8,54,0.00,-RA,,0.03,WeatherDisplay:10.37,2014-10-21 12:26:00,
2014-10-21 13:31:00,51.4,37.1,29.41,WNW,292,21.9,21.9,58,0.00,-RA,,0.03,WeatherDisplay:10.37,2014-10-21 12:31:00,
2014-10-21 13:36:00,52.0,36.3,29.41,West,270,23.0,23.0,55,0.00,-RA,,0.03,WeatherDisplay:10.37,2014-10-21 12:36:00,
2014-10-21 13:41:00,52.5,37.3,29.41,WNW,292,29.9,29.9,56,0.00,-RA,,0.03,WeatherDisplay:10.37,2014-10-21 12:41:00,
2014-10-21 13:46:00,52.9,37.1,29.41,West,270,23.0,23.0,55,0.00,-RA,,0.03,WeatherDisplay:10.37,2014-10-21 12:46:00,
2014-10-21 13:51:00,51.3,35.6,29.44,WNW,292,28.8,28.8,55,0.00,-RA,,0.03,WeatherDisplay:10.37,2014-10-21 12:51:00,
2014-10-21 13:56:00,50.4,36.1,29.44,WNW,292,27.6,27.6,58,0.00,-RA,,0.03,WeatherDisplay:10.37,2014-10-21 12:56:00,
2014-10-21 14:01:00,51.6,38.2,29.44,WSW,248,17.3,17.3,60,0.00,-RA,,0.03,WeatherDisplay:10.37,2014-10-21 13:01:00,
2014-10-21 14:06:00,51.8,37.0,29.44,WNW,292,23.9,23.9,57,0.00,-RA,,0.03,WeatherDisplay:10.37,2014-10-21 13:06:00,
2014-10-21 14:11:00,51.3,37.4,29.44,WNW,292,23.0,23.0,59,0.00,-RA,,0.03,WeatherDisplay:10.37,2014-10-21 13:11:00,
2014-10-21 14:16:00,50.7,37.3,29.44,WSW,248,17.3,17.3,60,0.00,-RA,,0.03,WeatherDisplay:10.37,2014-10-21 13:16:00,
2014-10-21 14:21:00,50.5,37.2,29.47,WNW,292,23.0,23.0,60,0.00,-RA,,0.03,WeatherDisplay:10.37,2014-10-21 13:21:00,
2014-10-21 14:26:00,50.4,37.8,29.47,WNW,292,23.0,23.0,62,0.00,-RA,,0.03,WeatherDisplay:10.37,2014-10-21 13:26:00,
2014-10-21 14:31:00,49.8,36.5,29.47,WNW,292,31.1,31.1,60,0.00,-RA,,0.03,WeatherDisplay:10.37,2014-10-21 13:31:00,
2014-10-21 14:36:00,49.6,37.1,29.47,WNW,292,31.1,31.1,62,0.00,-RA,,0.03,WeatherDisplay:10.37,2014-10-21 13:36:00,
2014-10-21 14:41:00,50.0,37.1,29.47,West,270,20.7,20.7,61,0.00,-RA,,0.03,WeatherDisplay:10.37,2014-10-21 13:41:00,
2014-10-21 14:46:00,50.4,37.0,29.47,WNW,292,18.4,19.4,60,0.00,-RA,,0.03,WeatherDisplay:10.37,2014-10-21 13:46:00,
2014-10-21 14:51:00,50.4,36.6,29.50,NNW,338,20.7,20.7,59,0.00,-RA,,0.03,WeatherDisplay:10.37,2014-10-21 13:51:00,
2014-10-21 14:56:00,50.4,36.1,29.50,WSW,248,19.9,20.6,58,0.00,-RA,,0.03,WeatherDisplay:10.37,2014-10-21 13:56:00,
2014-10-21 15:01:00,50.2,35.5,29.50,WNW,292,23.9,23.9,57,0.00,-RA,,0.03,WeatherDisplay:10.37,2014-10-21 14:01:00,
2014-10-21 15:06:00,50.2,35.1,29.50,WNW,292,25.3,25.3,56,0.00,-RA,,0.03,WeatherDisplay:10.37,2014-10-21 14:06:00,
2014-10-21 15:11:00,50.2,35.5,29.50,WNW,292,24.2,24.2,57,0.00,-RA,,0.03,WeatherDisplay:10.37,2014-10-21 14:11:00,
2014-10-21 15:16:00,49.5,35.3,29.50,West,270,26.5,26.5,58,0.00,-RA,,0.03,WeatherDisplay:10.37,2014-10-21 14:16:00,
2014-10-21 15:21:00,49.1,34.9,29.53,WNW,292,26.5,26.5,58,0.00,-RA,,0.03,WeatherDisplay:10.37,2014-10-21 14:21:00,
2014-10-21 15:26:00,48.7,35.0,29.53,WNW,292,21.9,21.9,59,0.00,-RA,,0.03,WeatherDisplay:10.37,2014-10-21 14:26:00,
2014-10-21 15:31:00,48.6,36.1,29.53,WNW,292,20.6,20.6,62,0.00,-RA,,0.03,WeatherDisplay:10.37,2014-10-21 14:31:00,
2014-10-21 15:36:00,49.3,37.2,29.56,West,270,27.6,27.6,63,0.00,-RA,,0.03,WeatherDisplay:10.37,2014-10-21 14:36:00,
2014-10-21 15:41:00,48.6,36.1,29.56,WNW,292,19.6,19.6,62,0.00,-RA,,0.03,WeatherDisplay:10.37,2014-10-21 14:41:00,
2014-10-21 15:46:00,47.8,35.4,29.56,WNW,292,24.2,24.2,62,0.00,-RA,,0.03,WeatherDisplay:10.37,2014-10-21 14:46:00,
2014-10-21 15:51:00,47.7,35.3,29.56,WSW,248,17.3,17.3,62,0.00,-RA,,0.03,WeatherDisplay:10.37,2014-10-21 14:51:00,
2014-10-21 15:56:00,47.7,35.3,29.56,West,270,25.3,25.3,62,0.00,-RA,,0.03,WeatherDisplay:10.37,2014-10-21 14:56:00,
2014-10-21 16:01:00,47.1,36.0,29.56,West,270,24.2,24.2,65,0.00,-RA,,0.03,WeatherDisplay:10.37,2014-10-21 15:01:00,
2014-10-21 16:06:00,46.6,35.4,29.59,WSW,248,26.5,26.5,65,0.00,-RA,,0.03,WeatherDisplay:10.37,2014-10-21 15:06:00,
2014-10-21 16:11:00,46.4,35.3,29.59,WNW,292,24.2,24.2,65,0.00,-RA,,0.03,WeatherDisplay:10.37,2014-10-21 15:11:00,
2014-10-21 16:16:00,46.8,35.2,29.59,WNW,292,27.6,27.6,64,0.00,-RA,,0.03,WeatherDisplay:10.37,2014-10-21 15:16:00,
2014-10-21 16:21:00,46.9,35.0,29.59,West,270,19.6,19.6,63,0.00,-RA,,0.03,WeatherDisplay:10.37,2014-10-21 15:21:00,
2014-10-21 16:26:00,47.7,35.7,29.59,West,270,19.6,19.6,63,0.00,-RA,,0.03,WeatherDisplay:10.37,2014-10-21 15:26:00,
2014-10-21 16:31:00,48.4,35.5,29.59,West,270,19.6,19.6,61,0.00,-RA,,0.03,WeatherDisplay:10.37,2014-10-21 15:31:00,
2014-10-21 16:36:00,48.2,34.5,29.62,WNW,292,16.3,16.3,59,0.00,-RA,,0.03,WeatherDisplay:10.37,2014-10-21 15:36:00,
2014-10-21 16:41:00,48.6,34.0,29.62,WNW,292,21.9,21.9,57,0.00,-RA,,0.03,WeatherDisplay:10.37,2014-10-21 15:41:00,
2014-10-21 16:46:00,48.4,33.4,29.62,WSW,248,21.9,21.9,56,0.00,-RA,,0.03,WeatherDisplay:10.37,2014-10-21 15:46:00,
2014-10-21 16:51:00,48.4,32.9,29.62,WNW,292,17.5,19.2,55,0.00,-RA,,0.03,WeatherDisplay:10.37,2014-10-21 15:51:00,
2014-10-21 16:57:00,47.8,32.4,29.62,WNW,292,29.9,29.9,55,0.00,-RA,,0.03,WeatherDisplay:10.37,2014-10-21 15:57:00,
2014-10-21 17:02:00,47.1,31.8,29.62,WNW,292,23.0,23.0,55,0.00,-RA,,0.03,WeatherDisplay:10.37,2014-10-21 16:02:00,
2014-10-21 17:07:00,46.2,30.5,29.65,NW,315,15.0,15.0,54,0.00,-RA,,0.03,WeatherDisplay:10.37,2014-10-21 16:07:00,
2014-10-21 17:12:00,45.9,31.0,29.65,NW,315,16.6,16.6,56,0.00,-RA,,0.03,WeatherDisplay:10.37,2014-10-21 16:12:00,
2014-10-21 17:17:00,45.3,31.0,29.65,WNW,292,15.0,15.0,57,0.00,-RA,,0.03,WeatherDisplay:10.37,2014-10-21 16:17:00,
2014-10-21 17:22:00,45.1,30.4,29.68,WNW,292,16.1,16.1,56,0.00,-RA,,0.03,WeatherDisplay:10.37,2014-10-21 16:22:00,
2014-10-21 17:27:00,45.1,30.4,29.68,West,270,16.1,16.1,56,0.00,-RA,,0.03,WeatherDisplay:10.37,2014-10-21 16:27:00,
2014-10-21 17:32:00,45.0,30.2,29.68,WNW,292,16.1,16.1,56,0.00,-RA,,0.03,WeatherDisplay:10.37,2014-10-21 16:32:00,
2014-10-21 17:37:00,44.8,30.5,29.68,West,270,17.3,17.3,57,0.00,-RA,,0.03,WeatherDisplay:10.37,2014-10-21 16:37:00,
2014-10-21 17:42:00,44.6,30.3,29.68,West,270,12.7,12.7,57,0.00,-RA,,0.03,WeatherDisplay:10.37,2014-10-21 16:42:00,
2014-10-21 17:47:00,44.4,31.0,29.68,WNW,292,18.4,18.4,59,0.00,-RA,,0.03,WeatherDisplay:10.37,2014-10-21 16:47:00,
2014-10-21 17:52:00,44.4,31.4,29.68,WNW,292,15.0,15.0,60,0.00,-RA,,0.03,WeatherDisplay:10.37,2014-10-21 16:52:00,
2014-10-21 17:57:00,44.4,31.4,29.68,WNW,292,18.4,18.4,60,0.00,-RA,,0.03,WeatherDisplay:10.37,2014-10-21 16:57:00,
2014-10-21 18:02:00,44.4,31.4,29.68,WNW,292,27.9,27.9,60,0.00,-RA,,0.03,WeatherDisplay:10.37,2014-10-21 17:02:00,
2014-10-21 18:07:00,44.4,31.4,29.68,WNW,292,14.3,16.6,60,0.00,-RA,,0.03,WeatherDisplay:10.37,2014-10-21 17:07:00,
2014-10-21 18:12:00,44.2,31.6,29.68,WNW,292,25.3,25.3,61,0.00,-RA,,0.03,WeatherDisplay:10.37,2014-10-21 17:12:00,
2014-10-21 18:17:00,44.1,31.5,29.68,WSW,248,15.0,15.0,61,0.00,-RA,,0.03,WeatherDisplay:10.37,2014-10-21 17:17:00,
2014-10-21 18:22:00,44.1,31.5,29.71,WNW,292,18.4,18.4,61,0.00,-RA,,0.03,WeatherDisplay:10.37,2014-10-21 17:22:00,
2014-10-21 18:27:00,44.1,31.5,29.71,WNW,292,19.6,19.6,61,0.00,-RA,,0.03,WeatherDisplay:10.37,2014-10-21 17:27:00,
2014-10-21 18:32:00,44.1,31.5,29.71,West,270,17.3,17.3,61,0.00,-RA,,0.03,WeatherDisplay:10.37,2014-10-21 17:32:00,
2014-10-21 18:37:00,43.9,31.7,29.74,West,270,12.7,12.7,62,0.00,-RA,,0.03,WeatherDisplay:10.37,2014-10-21 17:37:00,
2014-10-21 18:42:00,43.7,31.9,29.74,WSW,248,15.0,15.0,63,0.00,-RA,,0.03,WeatherDisplay:10.37,2014-10-21 17:42:00,
2014-10-21 18:47:00,43.5,32.1,29.74,WNW,292,13.8,13.8,64,0.00,-RA,,0.03,WeatherDisplay:10.37,2014-10-21 17:47:00,
2014-10-21 18:52:00,43.2,32.2,29.74,WNW,292,13.8,13.8,65,0.00,-RA,,0.03,WeatherDisplay:10.37,2014-10-21 17:52:00,
2014-10-21 18:57:00,43.0,32.4,29.74,West,270,12.7,12.7,66,0.00,-RA,,0.03,WeatherDisplay:10.37,2014-10-21 17:57:00,
2014-10-21 19:02:00,42.8,32.6,29.74,NNW,338,12.7,12.7,67,0.00,-RA,,0.03,WeatherDisplay:10.37,2014-10-21 18:02:00,
2014-10-21 19:07:00,42.4,32.6,29.74,West,270,12.5,12.5,68,0.00,-RA,,0.03,WeatherDisplay:10.37,2014-10-21 18:07:00,
2014-10-21 19:12:00,42.3,32.8,29.74,WNW,292,12.7,12.7,69,0.00,-RA,,0.03,WeatherDisplay:10.37,2014-10-21 18:12:00,
2014-10-21 19:17:00,42.1,33.0,29.74,WNW,292,15.4,15.4,70,0.00,-RA,,0.03,WeatherDisplay:10.37,2014-10-21 18:17:00,
2014-10-21 19:22:00,42.3,32.8,29.74,WNW,292,15.0,15.0,69,0.00,-RA,,0.03,WeatherDisplay:10.37,2014-10-21 18:22:00,
2014-10-21 19:27:00,42.3,32.8,29.74,West,270,18.4,18.4,69,0.00,-RA,,0.03,WeatherDisplay:10.37,2014-10-21 18:27:00,
2014-10-21 19:32:00,42.4,33.0,29.74,WNW,292,26.8,26.8,69,0.00,-RA,,0.03,WeatherDisplay:10.37,2014-10-21 18:32:00,
2014-10-21 19:37:00,42.4,32.6,29.77,WNW,292,13.8,13.8,68,0.00,-RA,,0.03,WeatherDisplay:10.37,2014-10-21 18:37:00,
2014-10-21 19:42:00,42.3,32.8,29.77,WNW,292,14.3,14.3,69,0.00,-RA,,0.03,WeatherDisplay:10.37,2014-10-21 18:42:00,